Tracking 19920 objects as of 14-Oct-2019
HD Live streaming from Space Station
objects crossing your sky now

SL-8 DEB *

Track SL-8 DEB * now!
10-day predictions


NORAD ID: 18510
Int'l Code: 1982-051F
Perigee: 718.5 km
Apogee: 740.2 km
Inclination: 74.0 °
Period: 99.2 minutes
Semi major axis: 7100 km
RCS: 0.0076 m2 (small)
Launch date: June 1, 1982
Source: Commonwealth of Independent States (former USSR) (CIS)
Launch site: PLESETSK MISSILE AND SPACE COMPLEX (PKMTR)

Note: This is SATELLITE DEBRIS
aabbcc
Your satellite tracking list
Your tracking list is empty




NASA's NSSDC Master Catalog

Two Line Element Set (TLE):
1 18510U 82051F   19286.78377409  .00000232  00000-0  65807-4 0  9999
2 18510  73.9912 309.5930 0015272 254.0836 221.1319 14.51042271735069
Source of the keplerian elements: AFSPC